[[{"header":{"parameterUnit":"m.s-1","parameterCategory":1,"la1":30.2991,"la2":30.254,"lo1":-89.0895,"lo2":-89.0444,"dy":0.0017,"dx":0.0017,"nx":28,"ny":28,"refTime":"2024-03-27T09:00:00:Z","depth":0,"parameterNumber":2,"parameterNumberName":"U-component_of_WINDS"},"data":[0,0,0,0,0,0,0,0,0,0,0,0,0,0,0,0,0,0,0,0,0,0,0,0,0,0,0,0,0,0,0,0,0,0,0,0,0,0,0,0,0,0,0,0,0,0,0,0,0,0,0,0,0,0,0,0,0,0,-0.587,-0.587,0,-0.5851,-0.5851,-0.5851,-0.5864,-0.5865,-0.5865,-0.5866,-0.5845,-0.5844,-0.5843,0,0,0,0,0,0,0,0,0,0,0,0,0,-0.5916,-0.5915,-0.587,-0.587,-0.587,-0.5851,-0.5851,-0.585,-0.5864,-0.5865,-0.5866,-0.5866,-0.5845,-0.5844,-0.5842,0,0,0,0,0,0,0,0,0,0,0,0,0,-0.5896,-0.5914,-0.587,-0.5874,-0.5874,-0.5851,-0.5851,-0.585,-0.5864,-0.5865,-0.5866,-0.5867,-0.5846,-0.5844,-0.5842,-0.5813,0,0,-0.5837,-0.5836,0,0,0,0,0,0,0,0,-0.5897,-0.5894,-0.5874,-0.5874,-0.5874,-0.5861,-0.5859,-0.5838,-0.5864,-0.5868,-0.5866,-0.5867,-0.5849,-0.5847,-0.5842,-0.5812,-0.5811,-0.5837,-0.5836,-0.5835,-0.5835,0,0,0,0,0,0,0,-0.5898,-0.5895,-0.5862,-0.5873,-0.5874,-0.5876,-0.5874,-0.5855,-0.5854,-0.5868,-0.5869,-0.5866,-0.5849,-0.5843,-0.5841,-0.5811,-0.5837,-0.5835,-0.5834,-0.5834,-0.5755,-0.5754,0,0,0,0,0,0,-0.59,-0.5896,-0.5863,-0.5862,-0.5888,-0.5875,-0.5873,-0.5864,-0.5854,-0.5853,-0.5865,-0.5867,-0.5846,-0.5843,-0.5841,-0.5805,-0.5835,-0.5834,-0.5833,-0.5756,-0.5755,-0.5754,0,0,0,0,0,0,-0.5901,-0.5897,-0.5864,-0.5879,-0.5875,-0.5873,-0.5863,-0.5863,-0.5857,-0.5852,-0.5852,-0.5859,-0.5846,-0.5843,-0.582,-0.5804,-0.5833,-0.5831,-0.5757,-0.5756,-0.5754,-0.5733,0,0,0,0,0,0,-0.5902,-0.5897,-0.5887,-0.5879,-0.5874,-0.5844,-0.5862,-0.5862,-0.5854,-0.5856,-0.5847,-0.5846,-0.5847,-0.5822,-0.5818,-0.5802,-0.583,-0.5759,-0.5757,-0.5755,-0.5736,-0.5731,-0.5728,0,0,0,0,0,-0.5904,-0.5882,-0.5886,-0.5882,-0.5862,-0.5843,-0.584,-0.5843,-0.5853,-0.5842,-0.5839,-0.5846,-0.5807,-0.582,-0.5815,-0.5799,-0.576,-0.5757,-0.5755,-0.5737,-0.5732,-0.5728,0,0,0,0,0,0,-0.5887,-0.5881,-0.5886,-0.5861,-0.5852,-0.5845,-0.5832,-0.5837,-0.5825,-0.5827,-0.583,-0.5828,-0.5803,-0.5799,-0.5813,-0.5769,-0.5785,-0.5781,-0.5773,-0.5768,-0.5764,-0.5765,-0.5828,0,0,0,0,0,-0.5881,-0.5867,-0.5862,-0.584,-0.5836,-0.5834,-0.5826,-0.5829,-0.582,-0.5816,-0.5811,-0.5802,-0.5787,-0.5778,-0.5764,-0.5735,-0.5732,-0.5722,-0.5718,-0.5715,-0.5711,-0.5694,-0.5688,-0.5746,-0.5746,-0.5746,0,0,-0.5867,-0.5862,-0.5853,-0.5837,-0.5831,-0.5815,-0.5831,-0.5815,-0.5803,-0.5814,-0.5791,-0.5787,-0.5777,-0.575,-0.5738,-0.5746,-0.5695,-0.5712,-0.5709,-0.5707,-0.5691,-0.5685,-0.568,-0.5744,-0.5745,-0.5745,0,0,-0.5834,-0.5829,-0.581,-0.5803,-0.5794,-0.5793,-0.5788,-0.578,-0.5778,-0.5756,-0.5763,-0.5748,-0.5724,-0.5715,-0.5708,-0.5671,-0.5676,-0.5666,-0.5646,-0.5629,-0.5624,-0.562,-0.5605,-0.56,-0.5663,-0.5663,-0.5663,0,-0.5818,-0.5796,-0.5799,-0.5782,-0.5774,-0.5783,-0.5763,-0.5756,-0.5742,-0.5736,-0.5745,-0.5713,-0.5707,-0.5677,-0.5668,-0.5662,-0.5656,-0.5667,-0.5625,-0.5621,-0.5617,-0.5602,-0.5597,-0.5662,-0.5662,-0.5662,-0.5662,0,-0.5776,-0.576,-0.5746,-0.5732,-0.5723,-0.5704,-0.5703,-0.5693,-0.5696,-0.5694,-0.567,-0.5662,-0.5647,-0.564,-0.5643,-0.5611,-0.5615,-0.5625,-0.564,-0.561,-0.5596,-0.5591,-0.566,-0.566,-0.5661,-0.5661,0,0,-0.5732,-0.572,-0.5714,-0.5708,-0.5698,-0.5685,-0.5666,-0.5651,-0.5641,-0.5631,-0.5614,-0.5593,-0.56,-0.5592,-0.5594,-0.5579,-0.5548,-0.559,-0.5589,-0.5581,-0.551,-0.5502,-0.5496,-0.5552,-0.5551,-0.555,-0.551,0,-0.5697,-0.5664,-0.5666,-0.5635,-0.562,-0.5628,-0.5611,-0.5602,-0.56,-0.5585,-0.5582,-0.5566,-0.5579,-0.5573,-0.5559,-0.5555,-0.5533,-0.5558,-0.5535,-0.5534,-0.5536,-0.5489,-0.5481,-0.5443,-0.5505,-0.5504,-0.5503,0,-0.5652,-0.5641,-0.5608,-0.5599,-0.5592,-0.5577,-0.5563,-0.555,-0.5539,-0.5538,-0.5528,-0.5532,-0.5511,-0.5528,-0.5499,-0.5515,-0.5506,-0.5502,-0.55,-0.5497,-0.5516,-0.5483,-0.5432,-0.5425,-0.5495,-0.5496,-0.5497,0,-0.5621,-0.5598,-0.5575,-0.5569,-0.5558,-0.5547,-0.5542,-0.5532,-0.5523,-0.551,-0.5503,-0.5488,-0.5479,-0.5467,-0.5466,-0.5479,-0.5436,-0.5453,-0.5433,-0.5433,-0.5423,-0.5423,-0.5368,-0.5419,-0.5419,-0.5419,-0.5419,0,-0.5581,-0.5561,-0.556,-0.5546,-0.5522,-0.5525,-0.5501,-0.5497,-0.5488,-0.5472,-0.5479,-0.5463,-0.5464,-0.5448,-0.5447,-0.5422,-0.5418,-0.5416,-0.5415,-0.5414,-0.5414,-0.5407,-0.5409,-0.5418,-0.5418,-0.5418,-0.5419,0,-0.5543,-0.5542,-0.5517,-0.5509,-0.5506,-0.5489,-0.5481,-0.5467,-0.5464,-0.5444,-0.5439,-0.5435,-0.5416,-0.5415,-0.5393,-0.5392,-0.5361,-0.5365,-0.5365,-0.5365,-0.5344,-0.5345,-0.5281,-0.5272,-0.5331,-0.533,-0.533,0,-0.5517,-0.5501,-0.5491,-0.5481,-0.5475,-0.5459,-0.5449,-0.545,-0.5439,-0.5425,-0.5412,-0.5394,-0.538,-0.535,-0.5344,-0.5327,-0.5329,-0.5308,-0.5327,-0.5325,-0.5327,-0.5327,-0.5324,-0.5304,-0.5303,-0.5303,-0.5302,0,-0.547,-0.547,-0.5456,-0.5441,-0.5429,-0.5417,-0.5406,-0.5398,-0.5397,-0.5385,-0.5366,-0.5355,-0.5332,-0.5314,-0.5297,-0.5291,-0.5295,-0.5296,-0.529,-0.5288,-0.5288,-0.5286,-0.5353,-0.5298,-0.5298,-0.5298,-0.5299,-0.5299,-0.5436,-0.5421,-0.5411,-0.5395,-0.5387,-0.5376,-0.5362,-0.5358,-0.5342,-0.5324,-0.5326,-0.5305,-0.5293,-0.5271,-0.5263,-0.5246,-0.5253,-0.5245,-0.5242,-0.524,-0.5237,-0.5292,-0.5243,-0.5243,-0.5243,-0.5243,-0.5243,0,-0.5388,-0.5382,-0.5367,-0.5351,-0.5337,-0.5344,-0.5332,-0.532,-0.5302,-0.5291,-0.5276,-0.5254,-0.5236,-0.5229,-0.521,-0.5198,-0.5199,-0.5193,-0.5193,-0.5191,-0.5233,-0.5239,-0.5191,-0.5191,-0.5191,-0.5191,-0.5191,-0.5191,-0.5361,-0.5337,-0.5335,-0.5306,-0.53,-0.528,-0.5272,-0.5262,-0.5253,-0.5228,-0.5213,-0.5208,-0.5198,-0.5179,-0.5163,-0.5161,-0.5153,-0.5145,-0.5144,-0.5183,-0.5188,-0.5193,-0.5199,-0.5144,-0.5144,-0.5103,-0.5103,-0.5103]},{"header":{"parameterUnit":"m.s-1","parameterCategory":1,"la1":30.2991,"la2":30.254,"lo1":-89.0895,"lo2":-89.0444,"dy":0.0017,"dx":0.0017,"nx":28,"ny":28,"refTime":"2024-03-27T09:00:00:Z","depth":0,"parameterNumber":3,"parameterNumberName":"V-component_of_WINDS"},"data":[0,0,0,0,0,0,0,0,0,0,0,0,0,0,0,0,0,0,0,0,0,0,0,0,0,0,0,0,0,0,0,0,0,0,0,0,0,0,0,0,0,0,0,0,0,0,0,0,0,0,0,0,0,0,0,0,0,0,-5.56,-5.5601,0,-5.5686,-5.5687,-5.5688,-5.5689,-5.5688,-5.5687,-5.5686,-5.5768,-5.5771,-5.5774,0,0,0,0,0,0,0,0,0,0,0,0,0,-5.5434,-5.5437,-5.56,-5.5601,-5.5602,-5.5685,-5.5687,-5.5688,-5.5689,-5.5688,-5.5687,-5.5685,-5.5767,-5.5771,-5.5775,0,0,0,0,0,0,0,0,0,0,0,0,0,-5.5511,-5.5438,-5.56,-5.5613,-5.5615,-5.5685,-5.5687,-5.5688,-5.5689,-5.5688,-5.5686,-5.5685,-5.5766,-5.577,-5.5775,-5.5836,0,0,-5.579,-5.5792,0,0,0,0,0,0,0,0,-5.5507,-5.5517,-5.561,-5.5612,-5.5615,-5.5675,-5.5658,-5.5738,-5.569,-5.5661,-5.5686,-5.5684,-5.5738,-5.5745,-5.5764,-5.584,-5.5844,-5.579,-5.5793,-5.5795,-5.5796,0,0,0,0,0,0,0,-5.5501,-5.5513,-5.5634,-5.5611,-5.5614,-5.5613,-5.5623,-5.5673,-5.5707,-5.5663,-5.5664,-5.5674,-5.5739,-5.576,-5.5766,-5.5845,-5.579,-5.5794,-5.5797,-5.5799,-5.5977,-5.5979,0,0,0,0,0,0,-5.5494,-5.5509,-5.5631,-5.5636,-5.5556,-5.5618,-5.5628,-5.5657,-5.5707,-5.5713,-5.5675,-5.5674,-5.5752,-5.5761,-5.5769,-5.5846,-5.5795,-5.5799,-5.5802,-5.5975,-5.5978,-5.598,0,0,0,0,0,0,-5.549,-5.5505,-5.5627,-5.5573,-5.5588,-5.5622,-5.5655,-5.566,-5.5681,-5.5716,-5.5721,-5.5691,-5.5751,-5.5762,-5.5821,-5.5849,-5.5802,-5.5806,-5.5973,-5.5976,-5.5979,-5.5999,0,0,0,0,0,0,-5.5486,-5.5503,-5.5528,-5.5573,-5.5591,-5.5679,-5.5657,-5.5663,-5.5689,-5.5688,-5.5732,-5.5737,-5.5751,-5.5813,-5.5825,-5.5855,-5.581,-5.5971,-5.5975,-5.5978,-5.5996,-5.6002,-5.6007,0,0,0,0,0,-5.548,-5.5528,-5.5529,-5.5544,-5.5623,-5.568,-5.569,-5.5707,-5.5692,-5.5716,-5.5739,-5.5736,-5.5844,-5.5819,-5.5833,-5.5864,-5.5969,-5.5973,-5.5978,-5.5993,-5.6001,-5.6007,0,0,0,0,0,0,-5.5482,-5.5534,-5.5536,-5.5601,-5.5637,-5.568,-5.5712,-5.5714,-5.5753,-5.575,-5.5767,-5.5777,-5.5835,-5.5855,-5.5827,-5.5927,-5.5904,-5.5912,-5.5912,-5.5919,-5.5925,-5.5919,-5.5814,0,0,0,0,0,-5.5491,-5.5535,-5.5577,-5.563,-5.5649,-5.5677,-5.5703,-5.5713,-5.5749,-5.5764,-5.5791,-5.5825,-5.5867,-5.5894,-5.5934,-5.5999,-5.6009,-5.6027,-5.6032,-5.6037,-5.6043,-5.6081,-5.609,-5.5994,-5.5994,-5.5994,0,0,-5.5508,-5.5542,-5.5568,-5.5632,-5.5661,-5.5705,-5.569,-5.5736,-5.5769,-5.577,-5.5828,-5.5849,-5.5888,-5.5951,-5.5979,-5.5969,-5.6072,-5.6042,-5.6046,-5.6049,-5.6086,-5.6095,-5.6103,-5.5997,-5.5996,-5.5996,0,0,-5.5563,-5.5593,-5.5642,-5.5672,-5.5717,-5.5736,-5.5748,-5.5792,-5.5807,-5.5866,-5.5868,-5.5906,-5.5977,-5.6006,-5.603,-5.6099,-5.6098,-5.6111,-5.6142,-5.6178,-5.6186,-5.6192,-5.6219,-5.6228,-5.6117,-5.6117,-5.6117,0,-5.5579,-5.5647,-5.5666,-5.5715,-5.5743,-5.5748,-5.5798,-5.5825,-5.588,-5.5899,-5.5887,-5.5979,-5.6005,-5.6076,-5.6093,-5.6111,-5.6126,-5.6107,-5.6183,-5.619,-5.6197,-5.6222,-5.6232,-5.6119,-5.6118,-5.6118,-5.6118,0,-5.5665,-5.5713,-5.5746,-5.5803,-5.5835,-5.5883,-5.5909,-5.5939,-5.5946,-5.5966,-5.6027,-5.6059,-5.6107,-5.6124,-5.6131,-5.6196,-5.6189,-5.618,-5.6158,-5.6207,-5.6231,-5.6241,-5.6121,-5.612,-5.612,-5.6119,0,0,-5.5723,-5.5791,-5.5804,-5.583,-5.5881,-5.5918,-5.5966,-5.6016,-5.6042,-5.608,-5.6122,-5.6183,-5.6176,-5.6203,-5.6213,-5.6245,-5.63,-5.6233,-5.6234,-5.6245,-5.6376,-5.6383,-5.6394,-5.6299,-5.6301,-5.6303,-5.6373,0,-5.5785,-5.5875,-5.5894,-5.5971,-5.6016,-5.6023,-5.6066,-5.6101,-5.6122,-5.6162,-5.6183,-5.6228,-5.6214,-5.6231,-5.6263,-5.6286,-5.6326,-5.6281,-5.6338,-5.634,-5.633,-5.6406,-5.6414,-5.6479,-5.6382,-5.6384,-5.6385,0,-5.5868,-5.5912,-5.5994,-5.6042,-5.6062,-5.61,-5.6148,-5.6187,-5.6227,-5.624,-5.6272,-5.6279,-5.633,-5.6305,-5.6376,-5.6345,-5.6369,-5.6384,-5.6387,-5.6394,-5.6366,-5.6416,-5.65,-5.651,-5.64,-5.6398,-5.6397,0,-5.5905,-5.5983,-5.6044,-5.6066,-5.6122,-5.615,-5.6174,-5.6213,-5.6243,-5.6284,-5.6303,-5.6349,-5.6374,-5.6409,-5.6429,-5.6409,-5.6498,-5.6475,-5.651,-5.651,-5.6529,-5.6528,-5.6619,-5.6543,-5.6543,-5.6543,-5.6542,0,-5.5972,-5.6023,-5.6062,-5.6099,-5.6156,-5.6177,-5.6233,-5.6256,-5.6292,-5.6333,-5.634,-5.6379,-5.6401,-5.6443,-5.6458,-5.6515,-5.6526,-5.6537,-5.6541,-5.6538,-5.6537,-5.6555,-5.6551,-5.6545,-5.6545,-5.6544,-5.6544,0,-5.6023,-5.6051,-5.6117,-5.6167,-5.618,-5.622,-5.6262,-5.6298,-5.6319,-5.6371,-5.6385,-5.6418,-5.6467,-5.649,-5.655,-5.656,-5.6626,-5.6625,-5.6613,-5.6615,-5.665,-5.6647,-5.6757,-5.6773,-5.6684,-5.6685,-5.6686,0,-5.6065,-5.6104,-5.6159,-5.6189,-5.6215,-5.6262,-5.6293,-5.6316,-5.6348,-5.6398,-5.6428,-5.6479,-5.6521,-5.6599,-5.6627,-5.6674,-5.6676,-5.6711,-5.6682,-5.6679,-5.6678,-5.6676,-5.6681,-5.6716,-5.6717,-5.6718,-5.6718,0,-5.6137,-5.615,-5.6195,-5.6247,-5.6285,-5.6325,-5.6365,-5.6388,-5.6417,-5.6452,-5.6505,-5.6537,-5.6601,-5.6651,-5.67,-5.6724,-5.6726,-5.6727,-5.6738,-5.6736,-5.6728,-5.6735,-5.6629,-5.6725,-5.6724,-5.6724,-5.6723,-5.6723,-5.6186,-5.6222,-5.6268,-5.6319,-5.6352,-5.639,-5.6427,-5.6455,-5.6499,-5.6555,-5.6565,-5.6621,-5.6661,-5.6728,-5.6754,-5.6797,-5.6789,-5.6804,-5.6808,-5.6812,-5.6815,-5.672,-5.6806,-5.6806,-5.6805,-5.6805,-5.6805,0,-5.626,-5.629,-5.6337,-5.6395,-5.6435,-5.6436,-5.6481,-5.6515,-5.6565,-5.6603,-5.6646,-5.6706,-5.6756,-5.6789,-5.6839,-5.6867,-5.687,-5.688,-5.6878,-5.6884,-5.6819,-5.6805,-5.6877,-5.6877,-5.6877,-5.6877,-5.6877,-5.6877,-5.6303,-5.6366,-5.6385,-5.6464,-5.6494,-5.6551,-5.6577,-5.6612,-5.6643,-5.6712,-5.6754,-5.6776,-5.6813,-5.6866,-5.6912,-5.692,-5.6939,-5.6949,-5.6957,-5.6896,-5.6888,-5.6881,-5.6869,-5.6953,-5.6953,-5.7019,-5.702,-5.702]}]]